TimeCST,TemperatureF,Dew PointF,Humidity,Sea Level PressureIn,VisibilityMPH,Wind Direction,Wind SpeedMPH,Gust SpeedMPH,PrecipitationIn,Events,Conditions,WindDirDegrees,DateUTC
12:53 AM,23.0,17.1,78,30.05,10.0,NNW,10.4,-,N/A,,Clear,340,2011-12-28 06:53:00
1:53 AM,21.9,15.1,75,30.04,10.0,NNW,9.2,-,N/A,,Clear,330,2011-12-28 07:53:00
2:53 AM,25.0,15.1,66,30.05,10.0,NNW,11.5,-,N/A,,Clear,340,2011-12-28 08:53:00
3:53 AM,28.0,18.0,66,30.06,10.0,NNW,10.4,-,N/A,,Clear,330,2011-12-28 09:53:00
4:53 AM,28.0,18.0,66,30.08,10.0,NNW,12.7,-,N/A,,Clear,330,2011-12-28 10:53:00
5:53 AM,28.0,18.0,66,30.09,10.0,NNW,11.5,-,N/A,,Clear,330,2011-12-28 11:53:00
6:53 AM,30.0,18.0,61,30.10,10.0,NNW,12.7,-,N/A,,Clear,340,2011-12-28 12:53:00
7:53 AM,30.0,18.0,61,30.10,10.0,NNW,16.1,-,N/A,,Clear,330,2011-12-28 13:53:00
8:53 AM,33.1,19.0,56,30.11,10.0,NNW,15.0,-,N/A,,Clear,330,2011-12-28 14:53:00
9:53 AM,35.1,21.9,59,30.14,10.0,Variable,3.5,-,N/A,,Clear,0,2011-12-28 15:53:00
10:53 AM,37.9,25.0,60,30.16,10.0,West,8.1,-,N/A,,Clear,280,2011-12-28 16:53:00
11:53 AM,39.0,25.0,57,30.14,10.0,WNW,10.4,-,N/A,,Clear,290,2011-12-28 17:53:00
12:53 PM,39.9,28.9,65,30.10,10.0,WSW,9.2,-,N/A,,Clear,250,2011-12-28 18:53:00
1:53 PM,42.1,30.0,62,30.06,10.0,West,8.1,-,N/A,,Clear,270,2011-12-28 19:53:00
2:53 PM,41.0,30.0,65,30.04,10.0,WSW,9.2,-,N/A,,Clear,240,2011-12-28 20:53:00
3:53 PM,39.0,32.0,76,30.04,10.0,West,4.6,-,N/A,,Clear,260,2011-12-28 21:53:00
4:53 PM,37.9,30.0,73,30.04,10.0,South,4.6,-,N/A,,Clear,180,2011-12-28 22:53:00
5:53 PM,36.0,28.9,76,30.05,10.0,SSW,4.6,-,N/A,,Clear,210,2011-12-28 23:53:00
6:53 PM,34.0,28.0,79,30.05,10.0,SSW,5.8,-,N/A,,Clear,200,2011-12-29 00:53:00
7:53 PM,35.1,28.0,76,30.04,10.0,WSW,9.2,-,N/A,,Clear,240,2011-12-29 01:53:00
8:53 PM,37.0,28.0,70,30.02,10.0,WSW,11.5,-,N/A,,Clear,240,2011-12-29 02:53:00
9:53 PM,37.0,28.0,70,30.00,10.0,WSW,12.7,-,N/A,,Clear,240,2011-12-29 03:53:00
10:53 PM,36.0,28.0,73,30.00,10.0,SW,8.1,-,N/A,,Clear,230,2011-12-29 04:53:00
11:53 PM,36.0,27.0,70,29.99,10.0,West,13.8,-,N/A,,Clear,280,2011-12-29 05:53:00